Weather History for Moriarty, NM

Change the Weather History Date:

Tuesday, September 17, 2013

  Actual Average (KABQ) Record (KABQ)
Temperature  
Mean Temperature 62 °F 69 °F  
Max Temperature 75 °F 80 °F 91 °F (1935)
Min Temperature 48 °F 58 °F 37 °F (1903)
Degree Days  
Heating Degree Days 4 1  
Month to date heating degree days 3  
Since 1 July heating degree days 3  
Cooling Degree Days 0 5  
Month to date cooling degree days 119  
Year to date cooling degree days 1276  
Growing Degree Days 12 (Base 50)    
Moisture  
Dew Point 52 °F    
Average Humidity 77    
Maximum Humidity 96    
Minimum Humidity 41    
Precipitation  
Precipitation 0.00 in 0.04 in 0.59 in (2009)
Month to date precipitation 0.61  
Year to date precipitation 6.89  
Snow  
Snow 0.00 in - - ()
Month to date snowfall  
Since 1 July snowfall  
Since 1 September snowfall  
Snow Depth -    
Sea Level Pressure  
Sea Level Pressure 30.22 in    
Wind  
Wind Speed 3 mph (SSW)    
Max Wind Speed 12 mph    
Max Gust Speed 18 mph    
Visibility 8 miles    
Events Fog , Thunderstorm    
T = Trace of Precipitation, MM = Missing Value Source: NWS Daily Summary

Daily Weather History Graph

Daily Weather History Graph

Search for Another Location

Airport:

Trip Planner

Search our weather history database for the weather conditions in past years. The results will help you decide how hot, cold, wet, or windy it might be!

Date:

Astronomy

Sep. 17, 2013 Rise Set
Actual Time 6:48 AM MDT 7:07 PM MDT
Civil Twilight 6:23 AM MDT 7:32 PM MDT
Nautical Twilight 5:53 AM MDT 8:02 PM MDT
Astronomical Twilight 5:23 AM MDT 8:32 PM MDT
Moon 5:54 PM MDT (9/17) 4:49 AM MDT (9/17)
Length of Visible Light 13h 09m
Length of Day
12h 19m
Waxing Gibbous, 96% of the Moon is Illuminated
Sep 17
Waxing Gibbous
Sep 19
Full
Sep 26
Last Quarter
Oct 4
New
Oct 11
First Quarter

Hourly Weather History & Observations

Time (MDT) Temp. Dew Point Humidity Pressure Visibility Wind Dir Wind Speed Gust Speed Precip Events Conditions
12:15 AM 53.8 °F 52.0 °F 94% 30.30 in 10.0 mi Calm Calm - N/A   Clear
12:35 AM 52.7 °F 50.9 °F 94% 30.29 in 10.0 mi Calm Calm - N/A   Clear
12:55 AM 51.8 °F 50.2 °F 94% 30.29 in 7.0 mi Calm Calm - N/A   Clear
1:15 AM 51.3 °F 49.6 °F 94% 30.29 in 10.0 mi Calm Calm - N/A Thunderstorm Clear
1:35 AM 51.1 °F 49.5 °F 94% 30.29 in 10.0 mi Calm Calm - N/A   Clear
1:55 AM 50.2 °F 48.7 °F 95% 30.29 in 10.0 mi Calm Calm - N/A   Clear
2:15 AM 50.2 °F 48.7 °F 95% 30.29 in 7.0 mi Calm Calm - N/A   Clear
2:35 AM 49.5 °F 48.2 °F 95% 30.28 in 7.0 mi NNW 4.6 mph - N/A   Clear
2:55 AM 49.3 °F 48.2 °F 96% 30.28 in 7.0 mi Calm Calm - N/A   Clear
3:15 AM 49.1 °F 47.7 °F 95% 30.28 in 7.0 mi NNW 3.5 mph - N/A Thunderstorm Clear
3:35 AM 49.1 °F 47.8 °F 95% 30.28 in 10.0 mi Calm Calm - N/A   Clear
3:55 AM 48.2 °F 46.8 °F 95% 30.28 in 10.0 mi Calm Calm - N/A Thunderstorm Mostly Cloudy
4:15 AM 49.1 °F 48.0 °F 96% 30.28 in 5.0 mi Calm Calm - N/A   Mostly Cloudy
4:35 AM 48.9 °F 47.5 °F 95% 30.28 in 1.0 mi Calm Calm - N/A   Mostly Cloudy
4:55 AM 48.6 °F 47.3 °F 95% 30.27 in 4.0 mi Calm Calm - N/A   Clear
5:15 AM 49.8 °F 48.4 °F 95% 30.28 in 7.0 mi Calm Calm - N/A   Mostly Cloudy
5:35 AM 50.0 °F 48.7 °F 95% 30.27 in 10.0 mi SSW 3.5 mph - N/A   Mostly Cloudy
5:55 AM 50.2 °F 48.9 °F 95% 30.28 in 10.0 mi WSW 4.6 mph - N/A   Scattered Clouds
6:15 AM 50.7 °F 49.5 °F 95% 30.28 in 7.0 mi Calm Calm - N/A   Mostly Cloudy
6:35 AM 52.2 °F 50.9 °F 95% 30.29 in 0.2 mi SSW 3.5 mph - N/A Fog Fog
6:55 AM 51.8 °F 50.5 °F 95% 30.29 in 0.2 mi Calm Calm - N/A Fog Fog
7:15 AM 51.8 °F 50.5 °F 95% 30.29 in 0.2 mi Calm Calm - N/A Fog Fog
7:35 AM 52.0 °F 50.9 °F 96% 30.30 in 0.2 mi Calm Calm - N/A Fog Fog
7:55 AM 52.5 °F 51.3 °F 95% 30.30 in 0.2 mi Calm Calm - N/A Fog Fog
8:15 AM 53.1 °F 52.0 °F 96% 30.29 in 0.2 mi Calm Calm - N/A Fog Fog
8:35 AM 54.0 °F 52.9 °F 96% 30.29 in 0.2 mi Calm Calm - N/A Fog Fog
8:55 AM 54.7 °F 53.6 °F 96% 30.29 in 0.8 mi Calm Calm - N/A   Overcast
9:15 AM 55.0 °F 53.8 °F 96% 30.29 in 7.0 mi Calm Calm - N/A   Overcast
9:35 AM 56.8 °F 54.3 °F 91% 30.29 in 10.0 mi Calm Calm - N/A   Scattered Clouds
9:55 AM 59.2 °F 54.7 °F 85% 30.29 in 10.0 mi Calm Calm - N/A   Clear
10:15 AM 61.7 °F 55.6 °F 80% 30.28 in 10.0 mi SSE 3.5 mph - N/A   Clear
10:35 AM 64.4 °F 55.2 °F 72% 30.28 in 10.0 mi South 6.9 mph - N/A   Clear
10:55 AM 66.4 °F 55.8 °F 69% 30.27 in 10.0 mi South 3.5 mph - N/A   Clear
11:15 AM 68.0 °F 55.4 °F 64% 30.27 in 10.0 mi South 9.2 mph - N/A   Clear
11:35 AM 69.3 °F 56.5 °F 64% 30.26 in 10.0 mi South 8.1 mph - N/A   Scattered Clouds
11:55 AM 70.7 °F 56.5 °F 61% 30.26 in 10.0 mi SW 9.2 mph - N/A   Scattered Clouds
12:15 PM 68.7 °F 53.8 °F 59% 30.25 in 10.0 mi West 11.5 mph - N/A   Mostly Cloudy
12:35 PM 70.2 °F 54.0 °F 56% 30.24 in 10.0 mi West 5.8 mph - N/A   Overcast
12:55 PM 70.7 °F 52.7 °F 53% 30.23 in 10.0 mi WSW 10.4 mph 18.4 mph N/A   Mostly Cloudy
1:15 PM 71.6 °F 52.5 °F 51% 30.22 in 10.0 mi West 6.9 mph - N/A   Mostly Cloudy
1:35 PM 72.3 °F 53.2 °F 51% 30.21 in 10.0 mi West 4.6 mph - N/A   Scattered Clouds
1:55 PM 72.7 °F 53.4 °F 51% 30.20 in 10.0 mi South 5.8 mph - N/A   Clear
2:15 PM 73.4 °F 54.3 °F 51% 30.20 in 10.0 mi West 11.5 mph - N/A   Mostly Cloudy
2:35 PM 72.7 °F 52.3 °F 49% 30.18 in 10.0 mi WNW 9.2 mph - N/A   Mostly Cloudy
2:55 PM 71.2 °F 52.5 °F 52% 30.17 in 10.0 mi West 10.4 mph - N/A   Scattered Clouds
3:15 PM 72.9 °F 52.3 °F 48% 30.16 in 10.0 mi West 5.8 mph - N/A   Scattered Clouds
3:35 PM 73.9 °F 52.7 °F 47% 30.15 in 10.0 mi WSW 9.2 mph - N/A   Clear
3:55 PM 74.3 °F 52.9 °F 47% 30.14 in 10.0 mi South 6.9 mph - N/A   Clear
4:15 PM 73.9 °F 50.7 °F 44% 30.13 in 10.0 mi Calm Calm - N/A   Clear
4:35 PM 73.0 °F 51.1 °F 46% 30.13 in 10.0 mi South 6.9 mph - N/A   Scattered Clouds
4:55 PM 72.5 °F 52.0 °F 48% 30.13 in 10.0 mi SW 6.9 mph - N/A   Scattered Clouds
5:15 PM 75.2 °F 50.2 °F 41% 30.13 in 10.0 mi SSW 9.2 mph - N/A   Mostly Cloudy
5:35 PM 74.1 °F 51.8 °F 46% 30.13 in 10.0 mi South 10.4 mph - N/A   Scattered Clouds
5:55 PM 71.2 °F 53.1 °F 53% 30.12 in 10.0 mi South 8.1 mph - N/A   Scattered Clouds
6:15 PM 69.4 °F 54.1 °F 58% 30.12 in 10.0 mi South 5.8 mph - N/A   Clear
6:35 PM 68.5 °F 53.6 °F 59% 30.12 in 10.0 mi SSW 6.9 mph - N/A   Clear
6:55 PM 67.3 °F 53.4 °F 61% 30.12 in 10.0 mi South 6.9 mph - N/A   Clear
7:15 PM 64.6 °F 54.5 °F 70% 30.12 in 10.0 mi South 5.8 mph - N/A   Clear
7:35 PM 63.1 °F 54.7 °F 74% 30.13 in 10.0 mi South 4.6 mph - N/A   Clear
7:55 PM 62.2 °F 55.4 °F 78% 30.13 in 10.0 mi South 4.6 mph - N/A   Clear
8:15 PM 61.0 °F 55.6 °F 82% 30.14 in 10.0 mi South 6.9 mph - N/A   Clear
8:35 PM 60.1 °F 55.4 °F 85% 30.15 in 10.0 mi SSE 5.8 mph - N/A   Clear
8:55 PM 60.4 °F 55.0 °F 82% 30.16 in 10.0 mi South 8.1 mph - N/A   Clear
9:15 PM 61.0 °F 55.0 °F 81% 30.16 in 10.0 mi SSE 8.1 mph - N/A   Clear
9:35 PM 59.9 °F 55.0 °F 84% 30.16 in 10.0 mi SSE 9.2 mph - N/A   Clear
9:55 PM 59.9 °F 55.4 °F 85% 30.17 in 10.0 mi SSE 9.2 mph - N/A   Scattered Clouds
10:15 PM 59.9 °F 55.4 °F 85% 30.17 in 10.0 mi SSE 6.9 mph - N/A   Mostly Cloudy
10:35 PM 59.9 °F 55.4 °F 85% 30.17 in 10.0 mi South 9.2 mph - N/A   Overcast
10:55 PM 59.9 °F 55.4 °F 85% 30.17 in 10.0 mi South 6.9 mph - N/A   Mostly Cloudy
11:15 PM 59.0 °F 55.4 °F 88% 30.17 in 10.0 mi South 8.1 mph - N/A   Mostly Cloudy
11:35 PM 58.5 °F 55.4 °F 90% 30.17 in 10.0 mi South 6.9 mph - N/A   Scattered Clouds
11:55 PM 58.6 °F 55.2 °F 88% 30.16 in 10.0 mi SSE 10.4 mph - N/A   Clear